This demonstration page uses our WeatherBlox Daily Observations layout. Learn more.

Left ArrowRight Arrow

41.55636, -103.73856

Hourly Observations for May 26, 2022

Temp ( °F °C ) Dew Point ( °F °C ) Humidity (%) Winds ( mph kmh ) Pressure ( in mb ) Visibility ( mi km ) Precip ( " mm )
12:58 am 00:58 Clear 47 8.5 36 2.1 64 64 SSE 6 9 29.91 1013 10 16 0.00 0.00
1:58 am 01:58 Clear 44 6.6 36 2.1 73 73 SSW 6 9 29.91 1013 10 16 0.00 0.00
2:58 am 02:58 Clear 46 7.6 35 1.9 67 67 WSW 3 6 29.91 1013 10 16 0.00 0.00
3:58 am 03:58 Clear 44 6.6 35 1.7 71 71 SW 9 15 29.92 1013 10 16 0.00 0.00
4:58 am 04:58 Clear 45 7.4 35 1.5 66 66 WSW 5 7 29.92 1013 10 16 0.00 0.00
5:58 am 05:58 Sunny 45 7 34 1.3 67 67 WSW 5 7 29.92 1013 10 16 0.00 0.00
6:58 am 06:58 Sunny 47 8.3 36 2.1 65 65 WNW 3 6 29.94 1014 10 16 0.00 0.00
8:58 am 08:58 Sunny 63 17.3 40 4.3 42 42 W 3 6 29.93 1014 10 16 0.00 0.00
9:58 am 09:58 Sunny 68 20.2 34 1.1 28 28 SW 5 7 29.93 1013 10 16 0.00 0.00
10:56 am 10:56 Sunny 71 21.4 33 0.5 25 25 WSW 5 7 29.93 1013 10 16 0.00 0.00
11:56 am 11:56 Sunny 72 22.3 30 -1.1 21 21 Calm 29.91 1013 10 16 0.00 0.00
12:56 pm 12:56 Sunny 75 24 33 0.3 21 21 NNE 6 9 29.89 1012 10 16 0.00 0.00
1:56 pm 13:56 Sunny 78 25.7 33 0.3 19 19 NNW 8 13 29.88 1012 10 16 0.00 0.00
2:58 pm 14:58 Sunny 80 26.4 32 0.2 18 18 NNW 10 17 29.86 1011 10 16 0.00 0.00
3:58 pm 15:58 Sunny 80 26.5 32 0.2 18 18 N 10 17 29.85 1011 10 16 0.00 0.00
4:58 pm 16:58 Sunny 80 26.5 29 -1.4 16 16 Calm 29.84 1011 10 16 0.00 0.00
5:58 pm 17:58 Sunny 80 26.7 31 -0.4 17 17 NNW 5 7 29.84 1011 10 16 0.00 0.00
6:58 pm 18:58 Sunny 78 25.8 34 1.1 20 20 NW 9 15 29.84 1011 10 16 0.00 0.00
7:58 pm 19:58 Sunny 76 24.4 32 0 20 20 NNW 3 6 29.84 1010 10 16 0.00 0.00
8:58 pm 20:58 Clear 68 20.2 35 1.6 29 29 E 8 13 29.86 1011 10 16 0.00 0.00
9:58 pm 21:58 Clear 62 16.7 39 3.7 42 42 Calm 29.88 1012 10 16 0.00 0.00
10:58 pm 22:58 Clear 65 18.2 36 2.1 34 34 SE 7 11 29.83 1010 10 16 0.00 0.00
11:58 pm 23:58 Clear 54 12.2 40 4.7 60 60 S 7 11 29.92 1013 10 16 0.00 0.00

Powered by AerisWeather